| time (UTC) | temp F | wind direction | speed knots | gust knots | rain 1hr in | rain 24hr in | rain mn in | humidity % | barometer mb |
| 20260905085525 | 77 | 105 | 1.7 | 2.6 | 0.00 | 0.00 | 0.00 | 74 | 1011.0 |
| 20260905085024 | 77 | 105 | 0.9 | 1.7 | 0.00 | 0.00 | 0.00 | 74 | 1011.0 |
| 20260905084544 | 77 | 105 | 0.9 | 2.6 | 0.00 | 0.00 | 0.00 | 74 | 1011.0 |
| 20260905084024 | 77 | 105 | 0.9 | 2.6 | 0.00 | 0.00 | 0.00 | 74 | 1011.0 |
| 20260905083527 | 77 | 105 | 1.7 | 2.6 | 0.00 | 0.00 | 0.00 | 74 | 1011.0 |
| 20260905083042 | 77 | 106 | 1.7 | 2.6 | 0.00 | 0.00 | 0.00 | 73 | 1011.0 |
| 20260905082525 | 77 | 119 | 1.7 | 2.6 | 0.00 | 0.00 | 0.00 | 73 | 1010.8 |
| 20260905082027 | 77 | 119 | 1.7 | 2.6 | 0.00 | 0.00 | 0.00 | 73 | 1010.9 |
| 20260905081546 | 78 | 119 | 1.7 | 3.5 | 0.00 | 0.00 | 0.00 | 72 | 1010.9 |
| 20260905081025 | 78 | 119 | 1.7 | 5.2 | 0.00 | 0.00 | 0.00 | 72 | 1010.9 |
| 20260905080525 | 78 | 128 | 1.7 | 5.2 | 0.00 | 0.00 | 0.00 | 72 | 1010.9 |
| 20260905080046 | 78 | 121 | 1.7 | 3.5 | 0.00 | 0.00 | 0.00 | 71 | 1011.0 |
| 20260905075523 | 78 | 121 | 1.7 | 3.5 | 0.00 | 0.00 | 0.00 | 71 | 1010.9 |
| 20260905075023 | 78 | 117 | 2.6 | 3.5 | 0.00 | 0.00 | 0.00 | 71 | 1010.9 |
| 20260905074551 | 78 | 119 | 1.7 | 3.5 | 0.00 | 0.00 | 0.00 | 70 | 1011.0 |
| 20260905074023 | 79 | 106 | 1.7 | 3.5 | 0.00 | 0.00 | 0.00 | 70 | 1010.8 |
| 20260905073526 | 79 | 111 | 1.7 | 3.5 | 0.00 | 0.00 | 0.00 | 70 | 1010.8 |
| 20260905073059 | 79 | 114 | 1.7 | 5.2 | 0.00 | 0.00 | 0.00 | 69 | 1010.8 |
| 20260905072524 | 79 | 120 | 2.6 | 5.2 | 0.00 | 0.00 | 0.00 | 70 | 1010.8 |
| 20260905072023 | 79 | 111 | 3.5 | 5.2 | 0.00 | 0.00 | 0.00 | 70 | 1010.7 |
| 20260905071547 | 79 | 115 | 2.6 | 6.1 | 0.00 | 0.00 | 0.00 | 69 | 1010.7 |
| 20260905071023 | 79 | 105 | 3.5 | 6.1 | 0.00 | 0.00 | 0.00 | 69 | 1010.6 |
| 20260905070524 | 79 | 117 | 3.5 | 6.1 | 0.00 | 0.00 | 0.00 | 69 | 1010.6 |
| 20260905070045 | 79 | 101 | 3.5 | 7.0 | 0.00 | 0.00 | 0.00 | 69 | 1010.7 |
| 20260905065524 | 80 | 115 | 4.3 | 7.0 | 0.00 | 0.00 | 0.00 | 69 | 1010.6 |
| 20260905065027 | 79 | 110 | 4.3 | 7.0 | 0.00 | 0.00 | 0.00 | 69 | 1010.6 |
| 20260905064543 | 80 | 105 | 4.3 | 7.0 | 0.00 | 0.00 | 0.00 | 69 | 1010.5 |
| 20260905064024 | 80 | 101 | 4.3 | 7.8 | 0.00 | 0.00 | 0.00 | 69 | 1010.5 |
| 20260905063525 | 80 | 113 | 4.3 | 7.8 | 0.00 | 0.00 | 0.00 | 69 | 1010.6 |
| 20260905063047 | 80 | 94 | 5.2 | 8.7 | 0.00 | 0.00 | 0.00 | 69 | 1010.4 |
| 20260905062528 | 80 | 117 | 5.2 | 8.7 | 0.00 | 0.00 | 0.00 | 69 | 1010.4 |
| 20260905062024 | 80 | 109 | 5.2 | 7.8 | 0.00 | 0.00 | 0.00 | 69 | 1010.3 |
| 20260905061546 | 80 | 114 | 5.2 | 7.8 | 0.00 | 0.00 | 0.00 | 69 | 1010.3 |
| 20260905061024 | 80 | 112 | 5.2 | 7.8 | 0.00 | 0.00 | 0.00 | 69 | 1010.4 |
| 20260905060524 | 80 | 105 | 5.2 | 7.8 | 0.00 | 0.00 | 0.00 | 69 | 1010.3 |
| 20260905060045 | 80 | 103 | 5.2 | 7.8 | 0.00 | 0.00 | 0.00 | 69 | 1010.2 |
| 20260905055523 | 80 | 94 | 5.2 | 7.8 | 0.00 | 0.00 | 0.00 | 69 | 1010.2 |
| 20260905055023 | 80 | 92 | 5.2 | 7.0 | 0.00 | 0.00 | 0.00 | 69 | 1010.2 |
| 20260905054547 | 81 | 97 | 4.3 | 7.0 | 0.00 | 0.00 | 0.00 | 69 | 1010.3 |
| 20260905054024 | 81 | 93 | 5.2 | 7.8 | 0.00 | 0.00 | 0.00 | 68 | 1010.3 |
| 20260905053524 | 81 | 98 | 4.3 | 7.8 | 0.00 | 0.00 | 0.00 | 68 | 1010.3 |
| 20260905053057 | 81 | 101 | 4.3 | 8.7 | 0.00 | 0.00 | 0.00 | 68 | 1010.4 |
| 20260905052524 | 81 | 92 | 4.3 | 8.7 | 0.00 | 0.00 | 0.00 | 68 | 1010.4 |
| 20260905052024 | 81 | 99 | 5.2 | 8.7 | 0.00 | 0.00 | 0.00 | 68 | 1010.4 |
| 20260905051546 | 81 | 99 | 5.2 | 7.8 | 0.00 | 0.00 | 0.00 | 68 | 1010.4 |
| 20260905051024 | 81 | 94 | 5.2 | 7.0 | 0.00 | 0.00 | 0.00 | 68 | 1010.6 |
| 20260905050524 | 81 | 97 | 4.3 | 7.0 | 0.00 | 0.00 | 0.00 | 67 | 1010.5 |
| 20260905050046 | 81 | 94 | 4.3 | 7.0 | 0.00 | 0.00 | 0.00 | 67 | 1010.7 |
| 20260905045523 | 82 | 97 | 3.5 | 7.0 | 0.00 | 0.00 | 0.00 | 67 | 1010.8 |
| 20260905045023 | 82 | 95 | 3.5 | 7.0 | 0.00 | 0.00 | 0.00 | 66 | 1010.8 |
| 20260905044545 | 82 | 98 | 3.5 | 7.0 | 0.00 | 0.00 | 0.00 | 66 | 1010.8 |
| 20260905044024 | 82 | 102 | 3.5 | 7.0 | 0.00 | 0.00 | 0.00 | 66 | 1010.8 |
| 20260905043525 | 82 | 96 | 3.5 | 7.0 | 0.00 | 0.00 | 0.00 | 66 | 1010.8 |
| 20260905043048 | 82 | 95 | 4.3 | 8.7 | 0.00 | 0.00 | 0.00 | 65 | 1010.7 |
| 20260905042525 | 83 | 89 | 4.3 | 8.7 | 0.00 | 0.00 | 0.00 | 65 | 1010.8 |
| 20260905042024 | 83 | 98 | 5.2 | 8.7 | 0.00 | 0.00 | 0.00 | 65 | 1010.9 |
| 20260905041547 | 83 | 97 | 5.2 | 8.7 | 0.00 | 0.00 | 0.00 | 65 | 1010.8 |
| 20260905041025 | 83 | 97 | 5.2 | 8.7 | 0.00 | 0.00 | 0.00 | 65 | 1010.8 |
| 20260905040523 | 83 | 101 | 5.2 | 7.0 | 0.00 | 0.00 | 0.00 | 65 | 1010.8 |
| 20260905040046 | 83 | 84 | 3.5 | 6.1 | 0.00 | 0.00 | 0.00 | 64 | 1010.8 |
| 20260905035523 | 83 | 99 | 3.5 | 6.1 | 0.00 | 0.00 | 0.00 | 64 | 1011.0 |
| 20260905035024 | 83 | 95 | 3.5 | 6.1 | 0.00 | 0.00 | 0.00 | 63 | 1010.9 |
| 20260905034543 | 84 | 96 | 2.6 | 6.1 | 0.00 | 0.00 | 0.00 | 63 | 1010.9 |
| 20260905034024 | 84 | 98 | 3.5 | 7.0 | 0.00 | 0.00 | 0.00 | 62 | 1011.0 |
| 20260905033526 | 84 | 104 | 4.3 | 7.0 | 0.00 | 0.00 | 0.00 | 62 | 1011.0 |
| 20260905033055 | 84 | 99 | 4.3 | 7.0 | 0.00 | 0.00 | 0.00 | 62 | 1010.9 |
| 20260905032524 | 85 | 91 | 3.5 | 7.0 | 0.00 | 0.00 | 0.00 | 61 | 1011.0 |
| 20260905032025 | 85 | 101 | 4.3 | 7.0 | 0.00 | 0.00 | 0.00 | 61 | 1011.0 |
| 20260905031547 | 85 | 99 | 4.3 | 7.8 | 0.00 | 0.00 | 0.00 | 60 | 1011.0 |
| 20260905031024 | 85 | 101 | 5.2 | 7.8 | 0.00 | 0.00 | 0.00 | 60 | 1010.9 |
| 20260905030525 | 86 | 99 | 4.3 | 7.8 | 0.00 | 0.00 | 0.00 | 60 | 1010.8 |
| 20260905030047 | 86 | 93 | 3.5 | 7.0 | 0.00 | 0.00 | 0.00 | 59 | 1010.7 |
| 20260905025526 | 86 | 99 | 4.3 | 7.0 | 0.00 | 0.00 | 0.00 | 59 | 1010.7 |
| 20260905025026 | 86 | 81 | 3.5 | 7.0 | 0.00 | 0.00 | 0.00 | 59 | 1010.7 |
| 20260905024541 | 86 | 81 | 3.5 | 7.8 | 0.00 | 0.00 | 0.00 | 59 | 1010.6 |
| 20260905024026 | 86 | 85 | 4.3 | 7.8 | 0.00 | 0.00 | 0.00 | 58 | 1010.6 |
| 20260905023524 | 87 | 82 | 4.3 | 7.0 | 0.00 | 0.00 | 0.00 | 58 | 1010.6 |
| 20260905023047 | 87 | 91 | 3.5 | 7.0 | 0.00 | 0.00 | 0.00 | 58 | 1010.4 |
| 20260905022524 | 87 | 78 | 4.3 | 6.1 | 0.00 | 0.00 | 0.00 | 58 | 1010.4 |
| 20260905022025 | 87 | 81 | 3.5 | 7.0 | 0.00 | 0.00 | 0.00 | 58 | 1010.2 |
| 20260905021546 | 87 | 86 | 4.3 | 7.0 | 0.00 | 0.00 | 0.00 | 58 | 1010.2 |
| 20260905021024 | 87 | 84 | 3.5 | 7.0 | 0.00 | 0.00 | 0.00 | 58 | 1010.1 |
| 20260905020525 | 87 | 90 | 4.3 | 7.0 | 0.00 | 0.00 | 0.00 | 57 | 1009.9 |
| 20260905020043 | 87 | 84 | 3.5 | 6.1 | 0.00 | 0.00 | 0.00 | 57 | 1009.7 |
| 20260905015524 | 88 | 86 | 2.6 | 5.2 | 0.00 | 0.00 | 0.00 | 56 | 1009.6 |
| 20260905015028 | 88 | 90 | 2.6 | 5.2 | 0.00 | 0.00 | 0.00 | 56 | 1009.6 |
| 20260905014548 | 88 | 87 | 2.6 | 5.2 | 0.00 | 0.00 | 0.00 | 56 | 1009.4 |
| 20260905014024 | 88 | 84 | 2.6 | 5.2 | 0.00 | 0.00 | 0.00 | 56 | 1009.4 |
| 20260905013524 | 89 | 86 | 2.6 | 5.2 | 0.00 | 0.00 | 0.00 | 55 | 1009.3 |
| 20260905013047 | 89 | 90 | 3.5 | 5.2 | 0.00 | 0.00 | 0.00 | 55 | 1009.4 |
| 20260905012524 | 89 | 96 | 3.5 | 5.2 | 0.00 | 0.00 | 0.00 | 54 | 1009.3 |
| 20260905012024 | 89 | 94 | 2.6 | 5.2 | 0.00 | 0.00 | 0.00 | 55 | 1009.3 |
| 20260905011544 | 89 | 93 | 2.6 | 5.2 | 0.00 | 0.00 | 0.00 | 54 | 1009.2 |
| 20260905011024 | 90 | 110 | 3.5 | 6.1 | 0.00 | 0.00 | 0.00 | 53 | 1009.1 |
| 20260905010526 | 91 | 106 | 2.6 | 6.1 | 0.00 | 0.00 | 0.00 | 52 | 1009.2 |
| 20260905010042 | 91 | 105 | 3.5 | 7.0 | 0.00 | 0.00 | 0.00 | 51 | 1009.2 |
| 20260905005525 | 92 | 111 | 3.5 | 7.8 | 0.00 | 0.00 | 0.00 | 50 | 1009.2 |
| 20260905005024 | 92 | 97 | 4.3 | 7.8 | 0.00 | 0.00 | 0.00 | 49 | 1009.1 |
| 20260905004551 | 93 | 360 | 5.2 | 8.7 | 0.00 | 0.00 | 0.00 | 49 | 1009.0 |
| 20260905004023 | 93 | 105 | 5.2 | 8.7 | 0.00 | 0.00 | 0.00 | 48 | 1009.1 |
| 20260905003527 | 94 | 110 | 6.1 | 8.7 | 0.00 | 0.00 | 0.00 | 47 | 1009.1 |
| 20260905003044 | 94 | 95 | 6.1 | 9.6 | 0.00 | 0.00 | 0.00 | 47 | 1009.1 |
| 20260905002524 | 95 | 108 | 5.2 | 9.6 | 0.00 | 0.00 | 0.00 | 47 | 1009.1 |
| 20260905002023 | 95 | 102 | 5.2 | 8.7 | 0.00 | 0.00 | 0.00 | 46 | 1009.1 |
| 20260905001544 | 96 | 101 | 5.2 | 9.6 | 0.00 | 0.00 | 0.00 | 46 | 1009.0 |
| 20260905001024 | 96 | 103 | 6.1 | 9.6 | 0.00 | 0.00 | 0.00 | 45 | 1009.0 |
| 20260905000525 | 96 | 123 | 6.1 | 9.6 | 0.00 | 0.00 | 0.00 | 45 | 1009.1 |
| 20260905000047 | 96 | 115 | 3.5 | 12.2 | 0.00 | 0.00 | 0.00 | 45 | 1009.1 |
| 20260904235526 | 97 | 109 | 6.1 | 12.2 | 0.00 | 0.00 | 0.00 | 44 | 1009.1 |
| 20260904235023 | 97 | 119 | 7.0 | 10.4 | 0.00 | 0.00 | 0.00 | 43 | 1009.1 |
| 20260904234547 | 97 | 110 | 7.8 | 13.0 | 0.00 | 0.00 | 0.00 | 43 | 1009.1 |
| 20260904234026 | 98 | 108 | 7.8 | 13.0 | 0.00 | 0.00 | 0.00 | 43 | 1009.1 |
| 20260904233524 | 98 | 108 | 7.8 | 12.2 | 0.00 | 0.00 | 0.00 | 43 | 1009.1 |
| 20260904233050 | 98 | 136 | 7.0 | 11.3 | 0.00 | 0.00 | 0.00 | 43 | 1009.1 |
| 20260904232526 | 98 | 107 | 7.8 | 12.2 | 0.00 | 0.00 | 0.00 | 42 | 1009.0 |
| 20260904232026 | 98 | 101 | 7.0 | 14.8 | 0.00 | 0.00 | 0.00 | 42 | 1008.9 |
| 20260904231544 | 98 | 90 | 8.7 | 14.8 | 0.00 | 0.00 | 0.00 | 42 | 1009.0 |
| 20260904231023 | 98 | 86 | 5.2 | 11.3 | 0.00 | 0.00 | 0.00 | 43 | 1009.1 |
| 20260904230522 | 99 | 110 | 6.1 | 13.0 | 0.00 | 0.00 | 0.00 | 42 | 1009.0 |
| 20260904230043 | 99 | 109 | 8.7 | 13.9 | 0.00 | 0.00 | 0.00 | 41 | 1009.1 |
| 20260904225525 | 99 | 111 | 8.7 | 13.9 | 0.00 | 0.00 | 0.00 | 42 | 1009.1 |
| 20260904225025 | 99 | 125 | 7.0 | 13.9 | 0.00 | 0.00 | 0.00 | 41 | 1009.1 |
| 20260904224601 | 99 | 136 | 9.6 | 13.9 | 0.00 | 0.00 | 0.00 | 41 | 1009.1 |
| 20260904224024 | 99 | 115 | 7.0 | 14.8 | 0.00 | 0.00 | 0.00 | 42 | 1009.0 |
| 20260904223524 | 99 | 101 | 7.8 | 18.2 | 0.00 | 0.00 | 0.00 | 41 | 1009.1 |
| 20260904223048 | 99 | 97 | 11.3 | 18.2 | 0.00 | 0.00 | 0.00 | 42 | 1009.1 |
| 20260904222523 | 99 | 119 | 6.1 | 13.9 | 0.00 | 0.00 | 0.00 | 42 | 1009.0 |
| 20260904222021 | 100 | 122 | 8.7 | 13.9 | 0.00 | 0.00 | 0.00 | 41 | 1009.0 |
| 20260904221548 | 100 | 145 | 6.1 | 16.5 | 0.00 | 0.00 | 0.00 | 40 | 1009.1 |
| 20260904221023 | 100 | 123 | 10.4 | 16.5 | 0.00 | 0.00 | 0.00 | 40 | 1009.2 |
| 20260904220531 | 100 | 130 | 7.0 | 17.4 | 0.00 | 0.00 | 0.00 | 41 | 1009.1 |
| 20260904220044 | 100 | 123 | 10.4 | 17.4 | 0.00 | 0.00 | 0.00 | 41 | 1009.1 |
| 20260904215524 | 100 | 87 | 7.8 | 16.5 | 0.00 | 0.00 | 0.00 | 41 | 1009.1 |
| 20260904215025 | 100 | 96 | 9.6 | 16.5 | 0.00 | 0.00 | 0.00 | 41 | 1009.1 |
| 20260904214549 | 100 | 113 | 7.0 | 16.5 | 0.00 | 0.00 | 0.00 | 40 | 1009.2 |
| 20260904214024 | 100 | 95 | 9.6 | 16.5 | 0.00 | 0.00 | 0.00 | 41 | 1009.2 |
| 20260904213524 | 100 | 100 | 9.6 | 14.8 | 0.00 | 0.00 | 0.00 | 42 | 1009.2 |
| 20260904213045 | 101 | 103 | 7.8 | 13.9 | 0.00 | 0.00 | 0.00 | 41 | 1009.2 |
| 20260904212524 | 100 | 142 | 7.8 | 16.5 | 0.00 | 0.00 | 0.00 | 41 | 1009.3 |
| 20260904212023 | 100 | 117 | 8.7 | 16.5 | 0.00 | 0.00 | 0.00 | 41 | 1009.4 |
| 20260904211545 | 100 | 105 | 8.7 | 16.5 | 0.00 | 0.00 | 0.00 | 40 | 1009.5 |
| 20260904211025 | 100 | 119 | 8.7 | 15.6 | 0.00 | 0.00 | 0.00 | 41 | 1009.4 |
| 20260904210526 | 100 | 108 | 9.6 | 15.6 | 0.00 | 0.00 | 0.00 | 42 | 1009.5 |
| 20260904210052 | 100 | 100 | 10.4 | 14.8 | 0.00 | 0.00 | 0.00 | 40 | 1009.6 |
| 20260904205525 | 100 | 117 | 6.1 | 15.6 | 0.00 | 0.00 | 0.00 | 41 | 1009.6 |
| 20260904205026 | 100 | 105 | 7.0 | 15.6 | 0.00 | 0.00 | 0.00 | 41 | 1009.6 |
| 20260904204545 | 100 | 99 | 10.4 | 15.6 | 0.00 | 0.00 | 0.00 | 41 | 1009.7 |
| 20260904204025 | 100 | 146 | 6.1 | 15.6 | 0.00 | 0.00 | 0.00 | 42 | 1009.7 |
| 20260904203524 | 99 | 114 | 9.6 | 15.6 | 0.00 | 0.00 | 0.00 | 42 | 1009.8 |
| 20260904203047 | 100 | 101 | 9.6 | 14.8 | 0.00 | 0.00 | 0.00 | 41 | 1009.9 |
| 20260904202525 | 100 | 96 | 8.7 | 14.8 | 0.00 | 0.00 | 0.00 | 42 | 1009.8 |
| 20260904202025 | 100 | 94 | 7.8 | 17.4 | 0.00 | 0.00 | 0.00 | 42 | 1009.7 |
| 20260904201558 | 100 | 95 | 11.3 | 17.4 | 0.00 | 0.00 | 0.00 | 42 | 1009.7 |
| 20260904201024 | 100 | 101 | 10.4 | 15.6 | 0.00 | 0.00 | 0.00 | 43 | 1009.7 |
| 20260904200524 | 100 | 94 | 10.4 | 16.5 | 0.00 | 0.00 | 0.00 | 42 | 1009.7 |
| 20260904200044 | 100 | 109 | 9.6 | 17.4 | 0.00 | 0.00 | 0.00 | 43 | 1009.9 |
| 20260904195526 | 99 | 94 | 7.0 | 17.4 | 0.00 | 0.00 | 0.00 | 44 | 1009.9 |
| 20260904195023 | 100 | 96 | 8.7 | 13.0 | 0.00 | 0.00 | 0.00 | 43 | 1010.0 |
| 20260904194559 | 100 | 92 | 8.7 | 16.5 | 0.00 | 0.00 | 0.00 | 43 | 1010.0 |
| 20260904194025 | 99 | 124 | 9.6 | 17.4 | 0.00 | 0.00 | 0.00 | 44 | 1010.0 |
| 20260904193525 | 99 | 126 | 10.4 | 17.4 | 0.00 | 0.00 | 0.00 | 45 | 1009.9 |
| 20260904193041 | 98 | 101 | 12.2 | 17.4 | 0.00 | 0.00 | 0.00 | 45 | 1010.0 |
| 20260904192523 | 98 | 84 | 11.3 | 17.4 | 0.00 | 0.00 | 0.00 | 44 | 1010.1 |
| 20260904192028 | 98 | 87 | 8.7 | 24.3 | 0.00 | 0.00 | 0.00 | 45 | 1010.0 |
| 20260904191544 | 99 | 95 | 10.4 | 24.3 | 0.00 | 0.00 | 0.00 | 44 | 1010.1 |
| 20260904191021 | 100 | 94 | 12.2 | 16.5 | 0.00 | 0.00 | 0.00 | 43 | 1010.0 |
| 20260904190524 | 99 | 116 | 10.4 | 16.5 | 0.00 | 0.00 | 0.00 | 45 | 1010.1 |
| 20260904190045 | 98 | 115 | 7.8 | 16.5 | 0.00 | 0.00 | 0.00 | 45 | 1010.3 |
| 20260904185524 | 97 | 104 | 9.6 | 15.6 | 0.00 | 0.00 | 0.00 | 47 | 1010.4 |
| 20260904185023 | 98 | 86 | 9.6 | 18.2 | 0.00 | 0.00 | 0.00 | 46 | 1010.3 |
| 20260904184542 | 99 | 137 | 10.4 | 18.2 | 0.00 | 0.00 | 0.00 | 45 | 1010.5 |
| 20260904184022 | 98 | 99 | 9.6 | 18.2 | 0.00 | 0.00 | 0.00 | 46 | 1010.5 |
| 20260904183521 | 98 | 126 | 7.0 | 17.4 | 0.00 | 0.00 | 0.00 | 46 | 1010.6 |
| 20260904183046 | 99 | 111 | 6.1 | 19.1 | 0.00 | 0.00 | 0.00 | 46 | 1010.7 |
| 20260904182524 | 98 | 126 | 7.8 | 19.1 | 0.00 | 0.00 | 0.00 | 46 | 1010.8 |
| 20260904182028 | 98 | 123 | 10.4 | 19.1 | 0.00 | 0.00 | 0.00 | 46 | 1010.8 |
| 20260904181545 | 97 | 100 | 7.8 | 17.4 | 0.00 | 0.00 | 0.00 | 47 | 1010.8 |
| 20260904181024 | 97 | 131 | 10.4 | 17.4 | 0.00 | 0.00 | 0.00 | 47 | 1010.9 |
| 20260904180523 | 98 | 125 | 7.0 | 13.9 | 0.00 | 0.00 | 0.00 | 46 | 1010.9 |
| 20260904180044 | 98 | 127 | 8.7 | 17.4 | 0.00 | 0.00 | 0.00 | 47 | 1011.0 |
| 20260904175524 | 97 | 110 | 7.8 | 17.4 | 0.00 | 0.00 | 0.00 | 48 | 1011.0 |
| 20260904175024 | 96 | 111 | 8.7 | 15.6 | 0.00 | 0.00 | 0.00 | 48 | 1011.0 |
| 20260904174550 | 96 | 146 | 9.6 | 15.6 | 0.00 | 0.00 | 0.00 | 48 | 1011.2 |
| 20260904174025 | 96 | 100 | 8.7 | 14.8 | 0.00 | 0.00 | 0.00 | 48 | 1011.1 |
| 20260904173523 | 96 | 118 | 7.0 | 11.3 | 0.00 | 0.00 | 0.00 | 49 | 1011.1 |
| 20260904173103 | 95 | 111 | 7.0 | 16.5 | 0.00 | 0.00 | 0.00 | 49 | 1011.3 |
| 20260904172524 | 96 | 117 | 9.6 | 16.5 | 0.00 | 0.00 | 0.00 | 49 | 1011.3 |
| 20260904172024 | 95 | 150 | 7.0 | 13.0 | 0.00 | 0.00 | 0.00 | 50 | 1011.3 |
| 20260904171552 | 95 | 141 | 5.2 | 13.0 | 0.00 | 0.00 | 0.00 | 51 | 1011.4 |
| 20260904171026 | 95 | 110 | 7.8 | 15.6 | 0.00 | 0.00 | 0.00 | 50 | 1011.4 |
| 20260904170525 | 94 | 102 | 8.7 | 15.6 | 0.00 | 0.00 | 0.00 | 50 | 1011.5 |
| 20260904170047 | 94 | 120 | 7.8 | 14.8 | 0.00 | 0.00 | 0.00 | 51 | 1011.5 |
| 20260904165525 | 94 | 81 | 7.0 | 15.6 | 0.00 | 0.00 | 0.00 | 52 | 1011.7 |
| 20260904165024 | 93 | 131 | 6.1 | 17.4 | 0.00 | 0.00 | 0.00 | 51 | 1011.7 |
| 20260904164553 | 94 | 113 | 10.4 | 17.4 | 0.00 | 0.00 | 0.00 | 52 | 1011.7 |
| 20260904164025 | 93 | 107 | 9.6 | 16.5 | 0.00 | 0.00 | 0.00 | 52 | 1011.6 |
| 20260904163524 | 93 | 105 | 7.8 | 13.9 | 0.00 | 0.00 | 0.00 | 53 | 1011.7 |
| 20260904163043 | 92 | 101 | 7.0 | 13.9 | 0.00 | 0.00 | 0.00 | 53 | 1011.6 |
| 20260904162524 | 93 | 132 | 10.4 | 13.9 | 0.00 | 0.00 | 0.00 | 53 | 1011.6 |
| 20260904162025 | 92 | 135 | 7.8 | 13.9 | 0.00 | 0.00 | 0.00 | 54 | 1011.5 |
| 20260904161542 | 92 | 126 | 6.1 | 13.9 | 0.00 | 0.00 | 0.00 | 55 | 1011.5 |
| 20260904161025 | 92 | 113 | 8.7 | 13.9 | 0.00 | 0.00 | 0.00 | 54 | 1011.7 |
| 20260904160523 | 91 | 128 | 6.1 | 12.2 | 0.00 | 0.00 | 0.00 | 55 | 1011.5 |
| 20260904160046 | 91 | 140 | 5.2 | 12.2 | 0.00 | 0.00 | 0.00 | 56 | 1011.5 |
| 20260904155525 | 90 | 138 | 5.2 | 12.2 | 0.00 | 0.00 | 0.00 | 56 | 1011.6 |
| 20260904155024 | 90 | 149 | 7.8 | 13.0 | 0.00 | 0.00 | 0.00 | 56 | 1011.5 |
| 20260904154544 | 90 | 114 | 7.0 | 13.0 | 0.00 | 0.00 | 0.00 | 57 | 1011.6 |
| 20260904154028 | 90 | 113 | 7.0 | 13.0 | 0.00 | 0.00 | 0.00 | 57 | 1011.6 |
| 20260904153524 | 89 | 138 | 7.8 | 13.0 | 0.00 | 0.00 | 0.00 | 57 | 1011.8 |
| 20260904153043 | 89 | 110 | 7.0 | 13.0 | 0.00 | 0.00 | 0.00 | 58 | 1011.7 |
| 20260904152524 | 89 | 123 | 8.7 | 13.9 | 0.00 | 0.00 | 0.00 | 58 | 1011.8 |
| 20260904152024 | 88 | 146 | 7.8 | 14.8 | 0.00 | 0.00 | 0.00 | 59 | 1011.8 |
| 20260904151548 | 88 | 146 | 9.6 | 14.8 | 0.00 | 0.00 | 0.00 | 59 | 1011.9 |
| 20260904151028 | 88 | 146 | 7.0 | 15.6 | 0.00 | 0.00 | 0.00 | 59 | 1011.9 |
| 20260904150524 | 88 | 140 | 8.7 | 15.6 | 0.00 | 0.00 | 0.00 | 60 | 1011.8 |
| 20260904150104 | 87 | 139 | 8.7 | 15.6 | 0.00 | 0.00 | 0.00 | 60 | 1011.9 |
| 20260904145524 | 87 | 119 | 9.6 | 15.6 | 0.00 | 0.00 | 0.00 | 61 | 1011.9 |
| 20260904145027 | 86 | 113 | 9.6 | 16.5 | 0.00 | 0.00 | 0.00 | 62 | 1011.8 |
| 20260904144545 | 86 | 120 | 10.4 | 16.5 | 0.00 | 0.00 | 0.00 | 62 | 1011.8 |
| 20260904144024 | 86 | 111 | 9.6 | 16.5 | 0.00 | 0.00 | 0.00 | 62 | 1011.7 |
| 20260904143525 | 85 | 96 | 7.8 | 12.2 | 0.00 | 0.00 | 0.00 | 64 | 1011.7 |
| 20260904143044 | 85 | 125 | 7.8 | 13.0 | 0.00 | 0.00 | 0.00 | 65 | 1011.8 |
| 20260904142523 | 84 | 100 | 8.7 | 16.5 | 0.00 | 0.00 | 0.00 | 65 | 1011.8 |
| 20260904142023 | 84 | 115 | 7.8 | 16.5 | 0.00 | 0.00 | 0.00 | 66 | 1011.9 |
| 20260904141548 | 83 | 114 | 10.4 | 15.6 | 0.00 | 0.00 | 0.00 | 68 | 1011.9 |
| 20260904141024 | 82 | 109 | 8.7 | 13.9 | 0.00 | 0.00 | 0.00 | 69 | 1011.9 |
| 20260904140524 | 82 | 108 | 6.1 | 13.0 | 0.00 | 0.00 | 0.00 | 70 | 1011.8 |
| 20260904140046 | 81 | 112 | 7.8 | 13.0 | 0.00 | 0.00 | 0.00 | 72 | 1011.8 |
| 20260904135524 | 81 | 113 | 7.0 | 11.3 | 0.00 | 0.00 | 0.00 | 73 | 1011.7 |
| 20260904135024 | 80 | 119 | 7.0 | 11.3 | 0.00 | 0.00 | 0.00 | 74 | 1011.7 |
| 20260904134553 | 79 | 100 | 7.0 | 11.3 | 0.00 | 0.00 | 0.00 | 75 | 1011.7 |
| 20260904134024 | 79 | 120 | 6.1 | 10.4 | 0.00 | 0.00 | 0.00 | 77 | 1011.6 |
| 20260904133525 | 78 | 105 | 7.0 | 10.4 | 0.00 | 0.00 | 0.00 | 78 | 1011.5 |
| 20260904133050 | 77 | 111 | 7.0 | 11.3 | 0.00 | 0.00 | 0.00 | 79 | 1011.4 |
| 20260904132526 | 77 | 110 | 7.8 | 11.3 | 0.00 | 0.00 | 0.00 | 80 | 1011.4 |
| 20260904132024 | 76 | 105 | 7.0 | 11.3 | 0.00 | 0.00 | 0.00 | 81 | 1011.5 |
| 20260904131546 | 76 | 103 | 7.0 | 11.3 | 0.00 | 0.00 | 0.00 | 83 | 1011.4 |
| 20260904131024 | 75 | 104 | 7.0 | 10.4 | 0.00 | 0.00 | 0.00 | 84 | 1011.3 |
| 20260904130528 | 75 | 105 | 7.0 | 10.4 | 0.00 | 0.00 | 0.00 | 84 | 1011.3 |
| 20260904130045 | 74 | 91 | 6.1 | 9.6 | 0.00 | 0.00 | 0.00 | 86 | 1011.3 |
| 20260904125524 | 74 | 115 | 7.0 | 9.6 | 0.00 | 0.00 | 0.00 | 86 | 1011.3 |
| 20260904125025 | 73 | 109 | 6.1 | 8.7 | 0.00 | 0.00 | 0.00 | 86 | 1011.3 |
| 20260904124544 | 73 | 107 | 5.2 | 8.7 | 0.00 | 0.00 | 0.00 | 87 | 1011.1 |
| 20260904124027 | 73 | 104 | 5.2 | 8.7 | 0.00 | 0.00 | 0.00 | 87 | 1011.2 |
| 20260904123525 | 72 | 91 | 6.1 | 8.7 | 0.00 | 0.00 | 0.00 | 88 | 1011.0 |
| 20260904123046 | 72 | 92 | 5.2 | 8.7 | 0.00 | 0.00 | 0.00 | 88 | 1011.0 |
| 20260904122525 | 72 | 101 | 5.2 | 8.7 | 0.00 | 0.00 | 0.00 | 88 | 1011.0 |
| 20260904122025 | 72 | 94 | 6.1 | 7.8 | 0.00 | 0.00 | 0.00 | 87 | 1010.9 |
| 20260904121544 | 72 | 94 | 4.3 | 7.8 | 0.00 | 0.00 | 0.00 | 87 | 1010.8 |
| 20260904121024 | 72 | 96 | 4.3 | 7.8 | 0.00 | 0.00 | 0.00 | 87 | 1010.7 |
| 20260904120525 | 72 | 96 | 4.3 | 7.8 | 0.00 | 0.00 | 0.00 | 87 | 1010.8 |
| 20260904120044 | 72 | 100 | 3.5 | 6.1 | 0.00 | 0.00 | 0.00 | 87 | 1010.6 |
| 20260904115527 | 72 | 102 | 3.5 | 7.0 | 0.00 | 0.00 | 0.00 | 87 | 1010.7 |
| 20260904115023 | 72 | 103 | 3.5 | 7.0 | 0.00 | 0.00 | 0.00 | 86 | 1010.5 |
| 20260904114546 | 72 | 98 | 3.5 | 5.2 | 0.00 | 0.00 | 0.00 | 86 | 1010.5 |
| 20260904114024 | 72 | 97 | 2.6 | 5.2 | 0.00 | 0.00 | 0.00 | 86 | 1010.6 |
| 20260904113525 | 72 | 105 | 1.7 | 5.2 | 0.00 | 0.00 | 0.00 | 86 | 1010.7 |
| 20260904113049 | 72 | 96 | 2.6 | 5.2 | 0.00 | 0.00 | 0.00 | 86 | 1010.7 |
| 20260904112524 | 72 | 96 | 2.6 | 5.2 | 0.00 | 0.00 | 0.00 | 86 | 1010.6 |
| 20260904112025 | 72 | 93 | 2.6 | 5.2 | 0.00 | 0.00 | 0.00 | 85 | 1010.7 |
| 20260904111546 | 73 | 101 | 2.6 | 5.2 | 0.00 | 0.00 | 0.00 | 85 | 1010.8 |
| 20260904111024 | 73 | 96 | 2.6 | 6.1 | 0.00 | 0.00 | 0.00 | 85 | 1010.7 |
| 20260904110524 | 73 | 101 | 2.6 | 6.1 | 0.00 | 0.00 | 0.00 | 84 | 1010.6 |
| 20260904110043 | 73 | 109 | 3.5 | 5.2 | 0.00 | 0.00 | 0.00 | 84 | 1010.5 |
| 20260904105527 | 73 | 103 | 2.6 | 5.2 | 0.00 | 0.00 | 0.00 | 84 | 1010.4 |
| 20260904105024 | 73 | 98 | 2.6 | 5.2 | 0.00 | 0.00 | 0.00 | 83 | 1010.6 |
| 20260904104543 | 73 | 112 | 2.6 | 5.2 | 0.00 | 0.00 | 0.00 | 83 | 1010.6 |
| 20260904104025 | 73 | 113 | 2.6 | 5.2 | 0.00 | 0.00 | 0.00 | 83 | 1010.7 |
| 20260904103525 | 73 | 106 | 2.6 | 5.2 | 0.00 | 0.00 | 0.00 | 83 | 1010.5 |
| 20260904103046 | 73 | 107 | 2.6 | 6.1 | 0.00 | 0.00 | 0.00 | 83 | 1010.6 |
| 20260904102526 | 74 | 113 | 2.6 | 6.1 | 0.00 | 0.00 | 0.00 | 82 | 1010.6 |
| 20260904102023 | 74 | 111 | 3.5 | 7.0 | 0.00 | 0.00 | 0.00 | 82 | 1010.6 |
| 20260904101546 | 74 | 112 | 4.3 | 7.0 | 0.00 | 0.00 | 0.00 | 82 | 1010.4 |
| 20260904101023 | 74 | 109 | 4.3 | 7.0 | 0.00 | 0.00 | 0.00 | 81 | 1010.4 |
| 20260904100523 | 74 | 98 | 3.5 | 7.0 | 0.00 | 0.00 | 0.00 | 81 | 1010.4 |
| 20260904100042 | 74 | 104 | 4.3 | 7.0 | 0.00 | 0.00 | 0.00 | 81 | 1010.5 |
| 20260904095526 | 74 | 113 | 3.5 | 7.0 | 0.00 | 0.00 | 0.00 | 81 | 1010.4 |
| 20260904095021 | 74 | 105 | 4.3 | 7.0 | 0.00 | 0.00 | 0.00 | 81 | 1010.5 |
| 20260904094545 | 75 | 107 | 4.3 | 7.0 | 0.00 | 0.00 | 0.00 | 80 | 1010.3 |
| 20260904094025 | 75 | 106 | 3.5 | 6.1 | 0.00 | 0.00 | 0.00 | 80 | 1010.4 |
| 20260904093524 | 75 | 102 | 2.6 | 6.1 | 0.00 | 0.00 | 0.00 | 79 | 1010.3 |
| 20260904093046 | 75 | 104 | 3.5 | 7.0 | 0.00 | 0.00 | 0.00 | 79 | 1010.4 |
| 20260904092523 | 75 | 108 | 3.5 | 7.0 | 0.00 | 0.00 | 0.00 | 79 | 1010.4 |
| 20260904092024 | 75 | 111 | 3.5 | 7.0 | 0.00 | 0.00 | 0.00 | 79 | 1010.3 |
| 20260904091544 | 75 | 93 | 4.3 | 7.0 | 0.00 | 0.00 | 0.00 | 78 | 1010.2 |
| 20260904091025 | 76 | 105 | 3.5 | 6.1 | 0.00 | 0.00 | 0.00 | 77 | 1010.2 |
| 20260904090525 | 76 | 118 | 2.6 | 5.2 | 0.00 | 0.00 | 0.00 | 77 | 1010.2 |
| 20260904090043 | 76 | 107 | 3.5 | 5.2 | 0.00 | 0.00 | 0.00 | 76 | 1010.1 |